Weather observations for the past three days for
Durango-La Plata County Airport
Imperial (Metric)
Date Time (mdt) Wind (mph) Vis. (mi.) Weather Sky Cond. Temperature (ºF) Relative Humidity Wind Chill (°F) Heat Index (°F) Pressure Precipitation (in)
Air Dwpt 6 hour altimeter (in) sea level (mb) 1 hr 3 hr 6 hr
Max. Min.
12 22:53 N 7 10.00 Fair CLR 64.9 28.9 26% 30.21 1013.2
12 21:53 NE 3 10.00 Fair CLR 70 27 20% 30.2 1012.6
12 20:53 N 3 10.00 Fair CLR 79 27 15% 78 30.18 1011.5
12 19:53 NW 9 10.00 Fair CLR 84.9 25 11% 82 30.18 1011.9
12 18:53 NW 17 G 24 10.00 Fair CLR 88 21.9 9% 84 30.18 1012.6
12 17:53 W 14 G 22 10.00 Fair CLR 90 24.1 93.9 84 9% 86 30.18 1012.9
12 16:53 W 16 G 25 10.00 Fair CLR 91.9 25 9% 88 30.19 1012.5
12 15:53 W 14 G 28 10.00 Fair CLR 91.9 27 10% 88 30.2 1012.8
12 14:53 Calm 10.00 Fair CLR 90 27 10% 86 30.21 1013.6
12 13:53 W 8 G 21 10.00 Fair CLR 89.1 30 12% 85 30.23 1014.4
12 12:53 W 7 10.00 Fair CLR 87.1 32 14% 83 30.26 1015.0
12 11:53 Vrbl 5 10.00 Fair CLR 84 39.9 84 46 21% 81 30.28 1015.6
12 10:53 NE 8 10.00 Fair CLR 80.1 41 25% 79 30.29 1016.0
12 09:53 E 7 10.00 Fair CLR 75.9 42.1 30% 77 30.3 1016.6
12 08:53 NE 3 10.00 Fair CLR 70 42.1 37% 30.3 1016.1
12 07:53 Calm 10.00 Fair CLR 61 39 44% 30.29 1016.2
12 06:53 Calm 10.00 Fair CLR 51.1 36 56% 30.27 1016.2
12 05:53 Calm 10.00 Fair CLR 48 35.1 59 45 61% 30.25 1015.7
12 04:53 N 3 10.00 Fair CLR 51.1 35.1 54% 30.24 1015.3
12 03:53 N 6 10.00 Fair CLR 52 35.1 53% 30.23 1014.7
12 02:53 NE 3 10.00 Fair CLR 52 35.1 53% 30.22 1013.9
12 01:53 Calm 10.00 Fair CLR 52 37 57% 30.22 1014.5
12 00:53 N 9 10.00 Fair CLR 55.9 36 47% 30.22 1014.0
11 23:53 N 6 10.00 Fair CLR 59 36 86 59 42% 30.21 1013.6
11 22:53 N 5 10.00 Fair CLR 64 37.9 38% 30.21 1013.6
11 21:53 NE 6 10.00 Fair CLR 66 33.1 29% 30.18 1012.8
11 20:53 W 8 10.00 Fair CLR 75.9 33.1 21% 76 30.16 1011.6
11 19:53 NW 9 10.00 Fair CLR 81 35.1 19% 79 30.14 1011.1
11 18:53 NW 16 G 24 10.00 Fair CLR 84 34 17% 81 30.12 1011.0
11 17:53 NW 16 G 25 10.00 Fair CLR 86 34 90 81 15% 83 30.13 1011.3
11 16:53 NW 10 10.00 Fair CLR 84.9 33.1 15% 82 30.13 1011.4
11 15:53 NW 16 G 28 10.00 Fair CLR 84.9 32 15% 82 30.15 1011.9
11 14:53 W 10 G 24 10.00 Fair CLR 87.1 33.1 14% 84 30.15 1011.8
11 13:53 NW 9 10.00 Mostly Cloudy BKN110 82.9 36 19% 80 30.16 1012.2
11 12:53 Calm 10.00 Fair CLR 84 39.9 21% 81 30.19 1012.9
11 11:53 Calm 10.00 Fair CLR 82 43 82 48 25% 80 30.21 1013.9
11 10:53 Vrbl 3 10.00 Fair CLR 75.9 44.1 32% 77 30.23 1014.7
11 09:53 Vrbl 3 10.00 Fair CLR 73 46 38% 30.24 1015.3
11 08:53 Calm 10.00 Fair CLR 64.9 46.9 52% 30.24 1016.2
11 07:53 E 3 10.00 Fair CLR 59 45 60% 30.24 1016.5
11 06:53 N 3 10.00 Fair CLR 54 44.1 69% 30.23 1017.2
11 05:53 Calm 10.00 Fair CLR 50 44.1 57.9 46.9 80% 30.22 1016.4
11 04:53 N 6 10.00 Fair CLR 50 44.1 80% 48 30.21 1016.7
11 03:53 N 6 10.00 Fair CLR 52 45 77% 30.21 1016.3
11 02:53 Calm 10.00 Fair CLR 53.1 46 77% 30.21 1015.9
11 01:53 Calm 10.00 Fair CLR 55.9 46.9 72% 30.21 1014.6
11 00:53 Calm 10.00 Mostly Cloudy BKN100 57.9 46.9 67% 30.22 1015.1
10 23:53 NE 8 10.00 A Few Clouds FEW120 57 46.9 71.1 57 69% 30.22 1015.5
10 22:53 E 6 10.00 Light Rain FEW080 BKN100 61 48.9 65% 30.22 1015.3
10 21:53 N 9 10.00 Overcast FEW080 OVC095 63 48 58% 30.2 1014.6
10 20:53 Calm 10.00 Overcast OVC100 64 48 56% 30.17 1014.0
10 19:53 NE 13 10.00 Overcast SCT090 OVC110 66 46.9 50% 30.15 1013.1
10 18:53 N 17 G 26 10.00 Light Rain FEW048 BKN080 OVC110 64 48 56% 30.15 1013.4
10 17:53 N 9 10.00 Overcast BKN095 OVC120 71.1 44.1 79 66.9 38% 30.14 1012.1
10 16:53 SE 10 10.00 Light Rain FEW040 SCT060 BKN090 68 46.9 47% 30.14 1012.7
10 15:53 NE 10 G 18 10.00 Overcast FEW055 OVC095 68 48 49% 30.17 1013.3
10 14:53 E 18 G 26 10.00 Light Rain FEW055 SCT075 OVC090 69.1 46.9 45% 30.15 1012.4
10 13:53 SW 9 10.00 Fair CLR 78.1 41 27% 78 30.14 1010.9
10 12:53 W 7 10.00 Fair CLR 73.9 42.1 32% 30.17 1012.2
10 11:53 Vrbl 3 10.00 Fair CLR 72 45 72 60.1 38% 30.2 1013.2
10 10:53 N 5 10.00 Fair CLR 69.1 44.1 41% 30.21 1013.8
10 09:53 E 5 10.00 Fair CLR 66.9 45 45% 30.23 1014.5
10 08:53 N 3 10.00 Fair CLR 64 46 52% 30.23 1014.8
10 07:53 E 9 10.00 Overcast BKN060 OVC075 62.1 45 54% 30.22 1013.8
10 06:53 Calm 10.00 Overcast OVC110 61 43 52% 30.2 1013.1
10 05:53 N 8 10.00 Fair CLR 62.1 43 69.1 57.9 50% 30.21 1012.7
10 04:53 E 3 10.00 Overcast OVC110 62.1 43 50% 30.2 1012.0
10 03:53 NE 5 10.00 Mostly Cloudy BKN120 64 42.1 45% 30.2 1011.4
10 02:53 E 8 10.00 Mostly Cloudy BKN120 64.9 42.1 43% 30.2 1011.7
10 01:53 E 7 10.00 Overcast OVC110 66 42.1 42% 30.2 1011.6
10 00:53 E 3 10.00 Overcast OVC110 66.9 41 39% 30.2 1011.8
09 23:53 SE 15 10.00 Mostly Cloudy FEW050 SCT070 BKN090 69.1 41 88 69.1 36% 30.19 1011.5
Date Time (mdt) Wind (mph) Vis. (mi.) Weather Sky Cond. Air Dwpt Max. Min. Relative Humidity Wind Chill (°F) Heat Index (°F) altimeter (in) sea level (mb) 1 hr 3 hr 6 hr
6 hour
Temperature (ºF) Pressure Precipitation (in)